"Pseudo-MPEC" for A107czR

Created 2018 Jun 14 14:18:05 UT using Find_Orb

Click here for an explanation of pseudo-MPECs

 
 Astrometry: 
     A107czR  C2018 06 12oIAstrometry%.ok;t=Qta3s9w*xIyGmx,Cste*,4Sevgh;_I5G\T05
     A107czR  C2018 06 12/:Ym8\l`OjFMd@lHVl23D*O*S+i'EN89@RheRo)La+RA;xxNfBX;T05
     A107czR  C2018 06 12f31/o12C#KdUm)-c2Y$qe3dxaPtsE!_2fo'Q[KT`icSrJp^]O/IOT05
     A107czR  C2018 06 12Bg']q!1pVp(C?0NT5):$FHPqhTGwWvtD#1oYBe5mHXf2aAGj5%j]T05
     A107czR  C2018 06 13/aVQ#(MTr14Aj0-#U8jAy1hCFG4^VO:aEqisKFk]42'DsaH(8IS#Y00
     A107czR  C2018 06 13kQ#8?aHnU/:My3REXiYDqWX%2qJ@NoqR.6mV*#@x*s1\iLQhw.,/Y00
     A107czR  C2018 06 13h`B_db4Z3@h#gx-jr,tkq1/;]:)ZIii7OeP:'tn8qn%JgeyX\0BQY00
     A107czR  C2018 06 13G\Z[_I$PyD'mKEg@^]kQpB5AwL+?#RU^g;alk`6rS;rt50W'(/QJT08
     A107czR  C2018 06 13'Al$mQwJ^SbKHJq90af#8llHJMP3%:FsmxJq\WZa%*Ysn@_fwwYDT08
     A107czR  C2018 06 13y]q)pP)dP*7w\bor?redacted;OYyYlr'gWnd.Mba0ZjZdsx;W68T05
     A107czR  C2018 06 139Ra1K6EJI7BQ$SyC;L+6?lJ*@yw87kDSVpi!@mm=xqpw:fIh9?[cT08
     A107czR  C2018 06 13IU?RXnwVGTLj/G]d[N4XB[BCtbX7e3Wh?i\=y]KLMZM177Fe%%-ZT08
     A107czR  C2018 06 13:*#il5Z1HkSg4i*4L/`Tj3e[$eF]D-=_7tN]/bI1TyhF]Lm7OEr-T05
     A107czR  C2018 06 131rkUYbnq7v._W294e[ZH^`og,*fX7Q*(-dEU5\RC\7!n*5YeI\#/T08
     A107czR  C2018 06 13Q$P8b=JyHU\Us'e.==+y.,Hlu[WDq5.#m^;UUeT$tj3GKxUhoaB#T05
     A107czR  C2018 06 13GjoC%'AQpOTchoC4L!c=i0hg@W7[Sn(w%EGSov-XdVvbEc.?Rbt8T08
     A107czR  C2018 06 13s1sLYIw[%v(3k%@ICQy+vI*uU]);0nh\Nj_KeH.x9gr=1#pyrs]nT05
     A107czR KC2018 06 13O`+XUMCR!hlLnWN/hD[+U_!%^NyBBN\'`7w34*hvop-CM1qwp\L+E23
     A107czR KC2018 06 13A^=vfy#MjU:$_][5RQBuX^a)51cL]IG]-dYt=7!-F;e_xFt*RdTAE23
     A107czR KC2018 06 13nCRWo6MhZ-bwxc^DXJ)1p#;sug'[$Iltsee_Mj2;KsWHqta;R1x=E23
     A107czR  C2018 06 13[U38N.%/%:4N,b33,yNWM_ZDYA:f,l)AHYv%^`*RN29jyLvxUTK:900
     A107czR  C2018 06 13hJtc`o0CjX`J/?bI#;w5Tg4Z=f5K8P9J40KDSpWmt@f\iiQf$_-8900
     A107czR KC2018 06 14@$%UPq+ig/F!sKy'uVtov;,?*]_cwlU=q4L!+2DLAj';p'Bk7p;hE08
     A107czR KC2018 06 14eG-p^m3[9hRd#%ebk0ifTp'$w#p5N1Wm2d=p1PRK?*ivcU^T?MAsE08
     A107czR KC2018 06 14xxuZHdb3AUE`s;q#GvB,frou1$:8yg6U?25APQTLaSf4I77p44T,E08
     A107czR  C2018 06 14LO=PCVOdl**XtKc%Z5f3U6l8-Zc425=P?:`n%RS/e'4N,n=M\r'r474
     A107czR  C2018 06 14d?YEyw322QRkJ.-Ys4H!uHRjO%UI8TH5A4HLPTrRTBaV4P$6%tT'474
     A107czR  C2018 06 14MEW,TZDb\4)q60Gj(TxJ;nOE*e$%t,,s=lMwji3$L*:\,^d`75!+474
     A107czR  C2018 06 14o**J/YDo?=21D/!gBZ9'Nv3g`sXON=EXHy\1XZwwlbuUcbQNEOCP474

Station data:
(474) Mount John Observatory, Lake Tekapo  (S43.987388 E170.464960)  New
   Zealand.  Observers A. C. Gilmore, P. M. Kilmartin. Measurer P. M.
   Kilmartin. 1.0-m f/7.7 reflector + CCD.
(900) Moriyama  (N35.049756 E135.989940)  Japan. 0.25-m Schmidt-Cassegrain.
(E08) Wobblesock Observatory, Coonabarabran  (S31.226991 E149.334310)
   Australia/NSW.
(E23) Arcadia  (S33.621199 E151.071190)  Australia/NSW.
(T05) ATLAS-HKO, Haleakala  (N20.707573 W156.257010)  US/Hawaii.  Observers
   L. Denneau, A. Heinze, H. Weiland, B. Stalder, J. Tonry, A. Sherstyuk.
   Measurers L. Denneau, A. Heinze, J. Tonry. 0.5-m f/2.0 Schmidt + CCD.
(T08) ATLAS-MLO, Mauna Loa  (N19.535772 W155.576400)  US/Hawaii.
(Y00) SONEAR Observatory, Oliveira  (S20.715082 W44.784960)  Brazil.
   Observers C. Jacques, E. Pimentel, J. Barros. Measurer C. Jacques. 0.28-m
   f/2.2 astrograph + CCD.

Orbital elements:  A107czR
   Perihelion 2018 Aug 10.278221 +/- 0.0792 TT =  6:40:38 (JD 2458340.778221)
Epoch 2018 Jun 14.0 TT = JDT 2458283.5   Earth MOID: 0.0424   AutoNEOCP
M 322.14021 +/- 0.12                (J2000 ecliptic)
n   0.66098040 +/- 0.00134          Peri.   66.38174 +/- 0.07
a   1.30519978 +/- 0.00176          Node   262.30004 +/- 0.00045
e   0.2954733 +/- 0.000942          Incl.   24.03178 +/- 0.048
P   1.49/544.64d           H 23.7   G  0.15   U  8.3  
q 0.91954804 +/- 3.39e-5    Q 1.69085153 +/- 0.00352
From 29 observations 2018 June 12-14; mean residual 0".61
Residuals in arcseconds: 
180612 T05  .65+  .09+    180613 T08  .17+  1.1+    180613 900  .04+  .98+    
180612 T05  .70+  .41+    180613 T08  .61+  .46+    180613 900  .53-  .87+    
180612 T05  1.2+  .35+    180613 T05  .46+  .22-    180614 E08  .43+  .09+    
180612 T05  .62+  .34+    180613 T08  .73+  .75-    180614 E08  .24+  .49-    
180613 Y00  .45-  .68+    180613 T05  .47+  .44-    180614 E08  .01-  .19-    
180613 Y00  .07+  .47+    180613 T08  .91+  .45-    180614 474  .20-  .09+    
180613 Y00  .63-  2.1-    180613 T05  .73+  .15-    180614 474  .18-  .05+    
180613 T08  .54+  .77-    180613 E23  .56+  .39+    180614 474  .11-  .07+    
180613 T08  .40+  1.1+    180613 E23  .06-  .48+    180614 474  .14-  .01-    
180613 T05  .71+  .80-    180613 E23  .40+  .35+    

Ephemerides (geocentric):
Date (UTC) HH   RA              Dec         delta   r     elong  mag " sig PA
---- -- -- --  -------------   -----------  ------ ------ -----  --- ---- ---
2018 06 14 14  17 43 06.662   -12 36 48.25  .04523 1.0601 168.9 17.8  .21  24
2018 06 14 15  17 43 02.255   -12 11 43.90  .04510 1.0600 168.5 17.8  .22  23
2018 06 14 16  17 42 57.837   -11 46 31.34  .04498 1.0598 168.2 17.8  .24  23
2018 06 14 17  17 42 53.408   -11 21 10.66  .04486 1.0596 167.8 17.8  .26  22
2018 06 14 18  17 42 48.968   -10 55 41.97  .04474 1.0594 167.3 17.8  .28  21
2018 06 14 19  17 42 44.517   -10 30 05.38  .04463 1.0593 166.9 17.8  .29  21
2018 06 14 20  17 42 40.055   -10 04 21.00  .04452 1.0591 166.5 17.8  .31  20
2018 06 14 21  17 42 35.581   -09 38 28.97  .04441 1.0589 166.1 17.8  .33  20
2018 06 14 22  17 42 31.097   -09 12 29.39  .04430 1.0587 165.7 17.8  .35  19
2018 06 14 23  17 42 26.601   -08 46 22.40  .04420 1.0585 165.3 17.8  .37  19
2018 06 15 00  17 42 22.095   -08 20 08.14  .04409 1.0584 164.9 17.8  .39  18
2018 06 15 01  17 42 17.577   -07 53 46.74  .04399 1.0582 164.4 17.9  .41  18
2018 06 15 02  17 42 13.049   -07 27 18.35  .04390 1.0580 164.0 17.9  .44  17
2018 06 15 03  17 42 08.509   -07 00 43.11  .04380 1.0578 163.6 17.9  .46  17
2018 06 15 04  17 42 03.958   -06 34 01.17  .04371 1.0577 163.1 17.9  .48  17
2018 06 15 05  17 41 59.396   -06 07 12.70  .04362 1.0575 162.7 17.9  .50  16
2018 06 15 06  17 41 54.823   -05 40 17.85  .04354 1.0573 162.3 17.9  .53  16
2018 06 15 07  17 41 50.239   -05 13 16.79  .04345 1.0571 161.8 17.9  .55  16
2018 06 15 08  17 41 45.644   -04 46 09.69  .04337 1.0570 161.4 17.9  .57  16
2018 06 15 09  17 41 41.038   -04 18 56.72  .04330 1.0568 160.9 17.9  .60  15
2018 06 15 10  17 41 36.421   -03 51 38.07  .04322 1.0566 160.5 17.9  .62  15
2018 06 15 11  17 41 31.793   -03 24 13.91  .04315 1.0564 160.0 18.0  .65  15
2018 06 15 12  17 41 27.153   -02 56 44.44  .04308 1.0563 159.6 18.0  .68  14
2018 06 15 13  17 41 22.503   -02 29 09.84  .04301 1.0561 159.1 18.0  .70  14
2018 06 15 14  17 41 17.842   -02 01 30.30  .04295 1.0559 158.7 18.0  .73  14
2018 06 15 15  17 41 13.169   -01 33 46.03  .04289 1.0557 158.2 18.0  .75  14
2018 06 15 16  17 41 08.486   -01 05 57.23  .04283 1.0556 157.7 18.0  .78  14
2018 06 15 17  17 41 03.791   -00 38 04.10  .04277 1.0554 157.3 18.0  .81  13
2018 06 15 18  17 40 59.086   -00 10 06.85  .04272 1.0552 156.8 18.0  .84  13
2018 06 15 19  17 40 54.369   +00 17 54.30  .04267 1.0550 156.3 18.0  .87  13
2018 06 15 20  17 40 49.641   +00 45 59.15  .04262 1.0549 155.9 18.0  .89  13
2018 06 15 21  17 40 44.903   +01 14 07.47  .04258 1.0547 155.4 18.1  .92  13
2018 06 15 22  17 40 40.153   +01 42 19.05  .04254 1.0545 154.9 18.1  .95  12
2018 06 15 23  17 40 35.392   +02 10 33.65  .04250 1.0543 154.5 18.1  .98  12
2018 06 16 00  17 40 30.620   +02 38 51.07  .04247 1.0542 154.0 18.1  1.0  12
2018 06 16 01  17 40 25.837   +03 07 11.06  .04243 1.0540 153.5 18.1  1.0  12
2018 06 16 02  17 40 21.043   +03 35 33.39  .04240 1.0538 153.1 18.1  1.1  12
2018 06 16 03  17 40 16.238   +04 03 57.85  .04238 1.0537 152.6 18.1  1.1  12
2018 06 16 04  17 40 11.421   +04 32 24.18  .04236 1.0535 152.1 18.1  1.1  11
2018 06 16 05  17 40 06.594   +05 00 52.17  .04233 1.0533 151.6 18.2  1.2  11
2018 06 16 06  17 40 01.756   +05 29 21.56  .04232 1.0531 151.2 18.2  1.2  11
2018 06 16 07  17 39 56.906   +05 57 52.13  .04230 1.0530 150.7 18.2  1.2  11
2018 06 16 08  17 39 52.045   +06 26 23.64  .04229 1.0528 150.2 18.2  1.3  11
2018 06 16 09  17 39 47.174   +06 54 55.84  .04228 1.0526 149.7 18.2  1.3  11
2018 06 16 10  17 39 42.291   +07 23 28.50  .04228 1.0524 149.3 18.2  1.3  10
2018 06 16 11  17 39 37.397   +07 52 01.38  .04227 1.0523 148.8 18.2  1.4  10
2018 06 16 12  17 39 32.492   +08 20 34.23  .04227 1.0521 148.3 18.2  1.4  10
2018 06 16 13  17 39 27.576   +08 49 06.82  .04228 1.0519 147.8 18.3  1.4  10